Regional Weather Roundup
Issued by NWS State College, PA

Home | Current Version | Previous Version | Text Only | Print | Product List | Glossary On
Versions: 1 2 3 4 5 6 7 8 9 10 11 12 13 14 15 16 17 18 19 20 21 22 23 24 25 26 27 28 29 30 31 32 33 34 35 36 37 38 39 40 41 42 43 44 45 46 47 48 49 50
000
ASUS41 KCTP 050103
RWRCTP

REGIONAL WEATHER ROUNDUP
NATIONAL WEATHER SERVICE STATE COLLEGE PA
900 PM EDT FRI SEP 04 2015

Note: "fair" indicates few or no clouds below 12,000 feet with no
significant weather and/or obstructions to visibility.

* = STATION THAT DOES NOT REPORT PRECIPITATION /E.G. RAIN...SNOW...ETC/
    THUNDER OR FOG.

PAZ002>004-007>009-013>016-020>023-029>032-050200-
WESTERN PENNSYLVANIA

CITY           SKY/WX    TMP DP  RH WIND       PRES   REMARKS
ERIE           PTCLDY    75  66  73 E3        30.10R
MEADVILLE      MOCLDY    74  59  59 E7        30.15R
FRANKLIN*      CLOUDY    66  63  88 CALM      30.19R
NEW CASTLE     FAIR      72  69  90 CALM      30.13R
BEAVER COUNTY  CLEAR     75  61  60 CALM      30.13R
BUTLER*        FAIR      70  66  88 CALM      30.16R
PITTSBURGH INT MOCLDY    80  59  48 N10       30.13R
PITTSBURGH     MOCLDY    77  60  55 CALM      30.12R
INDIANA*       PTCLDY    70  66  88 CALM      30.17R
LATROBE        CLEAR     73  68  83 CALM      30.13R
WASHINGTON CO* PTCLDY    72  64  78 CALM      30.14R
$$

PAZ004>006-010>012-017>019-024>028-033>037-041-042-045-046-049>053-050200-
CENTRAL PENNSYLVANIA

CITY           SKY/WX    TMP DP  RH WIND       PRES   REMARKS
BRADFORD       MOCLDY    70  61  73 W7        30.20R
DUBOIS         MOCLDY    70  66  87 CALM      30.17R FOG
CLEARFIELD     MOCLDY    74  65  73 CALM      30.16R
JOHNSTOWN      MOCLDY    67  61  81 CALM      30.18R
ALTOONA        MOCLDY    73  66  78 CALM      30.14R
STATE COLLEGE  PTCLDY    75  66  73 NE5       30.14R
WILLIAMSPORT   MOCLDY    72  68  87 E6        30.12R
SELINSGROVE    MOCLDY    74  71  91 CALM      30.13R FOG
FT INDIANTOWN  MOCLDY    73  67  80 NE2       30.14R
CAPITAL CITY   MOCLDY    80  68  66 SE10      30.12R
HARRISBURG     CLOUDY    79  69  71 SE10      30.12R
YORK           MOCLDY    76  69  79 E7        30.12R
$$

PAZ038>040-043-044-047-048-054-055-060>062-067>071-050200-
EASTERN PENNSYLVANIA

CITY           SKY/WX    TMP DP  RH WIND       PRES   REMARKS
SCRANTON       PTCLDY    75  67  76 E3        30.17R
MOUNT POCONO   PTCLDY    70  66  87 E8        30.22R
ALLENTOWN      PTCLDY    77  67  71 E7        30.15R
QUAKERTOWN*    CLEAR     75  68  78 SE9       30.17R
READING        PTCLDY    78  67  68 E9        30.14R
LANCASTER      MOCLDY    75  69  81 E6        30.14R
COATESVILLE    PTCLDY    73  68  83 SE7       30.16R
POTTSTOWN      PTCLDY    74  68  81 CALM      30.16R
BLUE BELL      CLEAR     73  68  83 E8        30.15R
DOYLESTOWN     CLEAR     71  65  81 CALM      30.16R
WILLOW GROVE   NOT AVBL
NORTH PHILA    CLEAR     75  64  68 E13       30.17R
PHILADELPHIA   PTCLDY    76  66  71 E13       30.15R
$$


USA.gov is the U.S. government's official web portal to all federal, state and local government web resources and services.